SL-6 DEB *, 48262

Orbit data source: Space-Track

SL-6 DEB *, 48262 is space debris originally from a launch on Fri, 18 Jul 1980 UTC launched from the Plesetsk Missile And Space Complex (PKMTR). Debris objects in space refer to the collection of defunct objects orbiting the Earth. Examples of debris include non-operational satellites, rocket bodies, and fragments generated from explosions, collisions, or faulty payload assembly.

Loading next visibility...
Identifier
48262, 1980-063F
Orbit
Molniya
Country
Flag of CISCIS
Related business
Manufacturer
RKKE
Mission
Spacecraft
Bus & Motor
Unknown
Mass
Unknown
Launch date (UTC)
1980-07-18 (46 years ago)
Launch vehicle
Unknown
Launch site
Plesetsk Missile And Space Complex (PKMTR)
Object type
Payload
Rocket body
Debris
Shape & HBR
Unknown shape, 1.1 m
Radar Cross Section
Large (>1 m²)

Expand to show TLE details & history
Last TLE update: 1 week ago

TLE from 1 week ago
0 SL-6 DEB *
1 48262U 80063F   26163.28963061  .00000500  00000-0 -23466-2 0  9991
2 48262  63.7204   3.4481 7216621 280.8724 311.6837  2.05086926 94068
Epoch: 2026-06-12T06:57Z
TLE epoch observation values (Epoch: 2026-06-12T06:57:04.084Z)
Latitude
31.05662°
Longitude
161.32609°
Altitude
19,646.209 km
Speed
3.925 km/s
True Right ascension
11h 04m 51s
True Declination
31° 00' 54"
Sunlit
Object was in daylight at epoch
Visualization orbit readout
Latitude
Unknown
Longitude
Unknown
Altitude
Unknown
Speed
Unknown
Apparent Right ascension
Unknown
Apparent Declination
Unknown
Sunlit
N/A
Visualization observer readout
Local Sidereal Time
21:26:03
Azimuth
Unknown
Elevation
Unknown
Doppler factor
Unknown
Orbital elements
Apogee altitude
38,673.167 km
Perigee altitude
905.223 km
Semi-major axis
26,167.332 km
Eccentricity
0.72166
Inclination
63.7204°
RAAN
3.4481°
Arg. of periapsis
280.8724°
True anomaly
224.04136°
Mean anomaly
311.6837°
Eccentric anomaly
270.33622°
Mean motion
0.51275 °/min
Orbital period
702.1 mins
BSTAR
-0.0023466
Loading maneuver chart data...
Computing Atmospheric mass density...
Loading historical data...
Loading historical data...
Loading historical data...
Loading historical data...
Loading historical data...
Loading historical data...
Loading historical data...

Documentation

Showing up to 5 results
|